Location: Saint-Denis
(20.8800°S, 55.4481°E)
Time: 08:32:46
(UTC+04:00)

JUGNU - Visible Passes

Search period start: 08 June 2023 00:00
Search period end: 18 June 2023 00:00
Orbit: 835 x 863 km, 20.0° (Epoch: 07 June)

Date Brightness Start Highest point End Pass type
(mag) Time Alt. Az. Time Alt. Az. Time Alt. Az.
12 Jun ? 05:23:41 10° N 05:25:30 11° NNE 05:27:19 10° NE visible
13 Jun ? 05:07:24 10° N 05:10:00 13° NNE 05:12:36 10° NE visible
14 Jun ? 04:51:21 10° N 04:54:30 15° NNE 04:57:40 10° NE visible
15 Jun ? 04:36:02 12° NNW 04:39:00 17° NNE 04:42:36 10° ENE visible
15 Jun ? 06:22:16 10° NW 06:27:42 40° NNE 06:33:09 10° E visible
16 Jun ? 04:22:14 17° N 04:23:30 19° NNE 04:27:28 10° ENE visible
16 Jun ? 06:06:40 10° NW 06:12:12 43° NNE 06:17:45 10° E visible
17 Jun ? 04:08:21 21° NNE 04:08:21 21° NNE 04:12:15 10° ENE visible
17 Jun ? 05:51:06 10° WNW 05:56:42 47° NNE 06:02:19 10° E visible
